Overview Statistics Trail Chart Weather Telemetry Raw packets
 

This is the latest recevied weather packets stored in our database for station/object W8RSN-13. If no packets are shown the sender has not sent any weather packets the latest 10 day(s).

<< 67 68 69 70 71 72 73 >>
Time Temp. Humidity Pressure Rain* Wind** Luminosity Snow
1788209659 30.56° C 45% 1014.9 hPa - - - -
1788209358 31.11° C 43% 1015 hPa - - - -
1788209057 30.56° C 44% 1014.8 hPa - - - -
1788208756 30.56° C 44% 1015 hPa - - - -
1788208475 30.56° C 45% 1015 hPa - - - -
1788208174 30° C 45% 1015.2 hPa - - - -
1788207874 30° C 46% 1015.3 hPa - - - -
1788207593 30° C 46% 1015.1 hPa - - - -
1788207272 30° C 47% 1015.1 hPa - - - -
1788206971 29.44° C 48% 1015.2 hPa - - - -
1788206670 29.44° C 48% 1015.2 hPa - - - -
1788206369 30° C 47% 1015.2 hPa - - - -
1788206068 29.44° C 48% 1015.2 hPa - - - -
1788205785 29.44° C 49% 1015.4 hPa - - - -
1788205466 29.44° C 49% 1015.3 hPa - - - -
1788205165 29.44° C 49% 1015.3 hPa - - - -
1788204868 29.44° C 50% 1015.3 hPa - - - -
1788204564 28.89° C 51% 1015.6 hPa - - - -
1788204263 28.89° C 51% 1015.5 hPa - - - -
1788203973 28.33° C 52% 1015.5 hPa - - - -
1788203661 28.33° C 51% 1015.8 hPa - - - -
1788203360 28.33° C 53% 1015.7 hPa - - - -
1788203059 28.33° C 53% 1016 hPa - - - -
1788202758 28.33° C 51% 1015.9 hPa - - - -
1788202457 28.33° C 52% 1015.8 hPa - - - -

* Rain since midnight (hover to see other rain measurements)
** Current wind speed in m/s (hover to see current wind gust speed)